sat.trackr.live / text

‹ back to catalog

STARLINK-35896

NORAD 66824 · 2025-280D

PAYLOAD ACTIVE UNKNOWN

§ Identity

Operator
Country
US
Launch date
2025-12-02
Launch site
AFWTR
Launch vehicle
Mass (kg)
RCS (m²)

Purposes: comms

External: N2YO · Heavens-Above · Gunter

§ Orbital elements

Epoch: 2026-09-20T13:28:55.041888Z

Period
96.11 min
Inclination
70.0009°
Eccentricity
0.0002838
Mean motion
14.98333959 rev/d
Perigee alt
570.1 km
Apogee alt
574.0 km
Semi-major
6,950.2 km
B*
2.4824e-4
RAAN
203.2042°
Arg perigee
270.2700°
Mean anomaly
89.8134°
Rev number
4,526

§ Raw data

STARLINK-358961 66824U 25280D   26263.56174817  .00002871  00000+0  24824-3 0  99912 66824  70.0009 203.2042 0002838 270.2700  89.8134 14.98333959 45260

JSON: /api/v1/satellites/66824 · /tle

For live sub-satellite position, see the globe view (requires WebGL).

§ Visibility from observer

Set your observer location to see the next 7 days of passes ≥ 10°. The values pass through the URL so the page stays shareable.

No JS? Fill the form by hand. The geolocation button needs JavaScript.